Wind_Speed
12 12 9 4 7 6 9 5 1 2 2 7 1 4 7 5 8 4 4 11 16 19 20 22 23 24 24 24 23 23 22 22 19 16 13 13 14 15 15 15 15 14 12 11 10 9 9 10 9
12 11 6 5 8 10 9 7 4 5 6 4 1 3 1 5 6 6 9 9 16 18 20 23 23 24 23 22 22 23 24 23 21 17 15 14 15 15 15 15 14 13 12 11 10 10 9 9 9
9 8 9 4 9 11 4 7 4 3 6 7 0 3 3 4 4 2 5 11 17 18 20 23 24 23 22 21 19 22 25 25 22 18 15 15 16 15 15 14 13 12 11 10 9 9 9 9 8
5 6 6 9 12 4 4 6 2 0 5 7 4 4 2 5 2 2 8 11 15 17 20 21 23 23 22 20 19 22 25 26 23 19 16 16 17 17 16 14 12 11 11 10 9 8 8 7 7
4 6 10 11 13 3 6 3 3 3 2 4 6 3 3 5 6 6 8 10 14 17 18 20 23 22 22 21 21 21 25 26 24 21 18 17 17 17 16 15 14 12 11 9 8 7 6 5 4
10 7 10 15 14 8 8 7 8 7 3 4 4 4 2 4 4 5 7 9 12 17 19 20 23 23 22 22 22 22 25 25 25 23 20 18 18 18 16 15 14 12 11 10 8 7 5 4 2
13 8 15 17 14 12 12 9 11 6 9 4 7 5 0 5 6 1 7 9 13 16 18 19 24 24 23 22 21 21 24 26 26 24 22 21 20 19 17 16 14 13 12 10 9 7 5 4 3
9 6 14 10 12 17 9 11 6 10 8 5 5 5 4 9 10 5 6 9 14 17 17 18 23 25 25 24 22 21 23 25 27 26 24 23 22 21 18 17 15 14 12 11 9 7 6 5 5
8 7 12 16 13 10 6 10 7 7 12 12 10 12 10 13 8 7 9 10 14 17 18 18 19 21 22 21 23 22 22 24 27 27 26 24 22 21 20 19 18 15 14 12 10 9 7 7 7
12 11 14 6 12 9 7 9 10 11 14 14 14 13 13 11 9 9 12 14 16 17 19 18 20 21 21 20 21 25 24 24 26 29 29 27 24 17 16 18 19 17 15 14 12 10 9 8 7
11 14 9 8 10 8 11 14 13 11 15 17 15 13 14 13 12 10 14 16 16 17 18 20 21 22 22 21 21 22 22 23 27 29 30 29 22 20 24 15 19 19 17 15 14 12 10 9 9
10 15 12 10 8 12 13 13 13 13 16 14 13 15 14 14 15 13 11 14 17 16 18 20 22 23 26 22 23 23 24 23 24 29 32 29 30 25 20 17 14 17 13 15 13 9 11 11 11
14 9 11 12 12 12 13 15 15 15 12 15 11 11 12 11 13 13 12 13 14 17 17 19 21 25 26 31 24 25 26 26 24 28 33 33 29 29 28 23 17 16 14 13 12 12 12 11 10
6 10 10 10 12 10 12 16 11 11 7 10 12 12 11 11 10 10 12 13 13 14 16 17 21 24 26 29 32 28 29 26 26 25 28 35 35 33 31 29 26 18 17 15 13 12 12 11 11
5 9 10 14 15 12 10 14 16 15 14 12 12 10 10 13 11 12 12 11 13 13 14 17 18 21 25 29 32 32 27 27 26 28 33 34 36 35 33 31 28 24 21 21 22 21 18 14 14
7 6 11 5 4 6 8 12 5 4 7 7 7 7 5 6 9 11 14 18 18 20 17 20 19 21 25 28 30 31 28 28 27 27 30 38 39 36 35 31 30 29 26 24 22 20 15 12 12
11 12 9 7 5 6 9 8 6 6 10 8 9 9 9 8 7 9 12 17 25 27 28 28 25 26 27 29 28 28 29 29 27 27 28 35 38 32 32 28 27 31 29 28 25 18 19 14 13
10 11 8 10 7 8 11 13 12 14 14 13 13 12 12 12 12 9 7 11 16 24 30 33 35 33 32 28 27 24 26 28 28 29 31 35 30 34 40 38 39 40 33 32 30 22 17 15 15
7 9 11 9 9 10 12 12 10 13 13 15 17 16 15 16 15 13 10 9 12 14 14 23 31 32 30 26 27 27 28 27 26 28 29 31 31 29 35 42 36 41 33 28 30 26 20 14 17
12 13 14 11 9 7 15 16 14 14 17 17 17 18 19 19 16 13 11 10 8 11 15 17 18 22 26 26 27 26 24 25 26 25 27 30 31 30 34 39 35 38 33 34 31 23 19 16 15
14 14 12 12 11 13 17 19 20 16 14 16 20 21 19 17 13 11 10 10 11 10 11 15 18 19 21 27 25 24 24 23 25 27 27 33 33 30 31 34 32 32 29 26 23 28 28 18 20
13 12 13 13 13 13 4 14 16 16 11 14 15 13 16 5 6 8 9 11 13 15 17 19 20 21 21 23 25 30 32 33 32 30 28 27 32 32 32 31 31 32 28 22 29 34 34 32 30
14 10 9 12 14 17 19 12 14 12 12 12 11 10 2 3 4 6 9 13 15 16 17 17 22 22 22 22 25 27 32 33 32 30 28 29 27 31 30 30 32 34 31 31 32 35 34 45 41
8 11 15 16 13 16 20 18 15 11 9 3 7 7 3 5 6 8 11 14 16 18 18 18 20 25 24 25 27 29 32 34 32 31 30 28 26 26 30 27 29 30 27 28 29 30 38 41 40
14 13 12 15 14 16 14 8 13 13 7 13 11 4 4 8 9 12 15 17 19 21 23 22 20 22 25 30 30 29 33 33 35 35 32 28 27 30 28 29 30 30 29 26 31 32 32 33 31
16 14 13 19 15 15 6 10 6 2 6 11 6 5 6 9 13 16 18 20 22 23 23 21 21 23 23 23 28 31 32 28 30 31 29 28 29 27 29 27 27 28 25 26 26 26 30 28 28
11 11 13 19 20 17 17 19 17 12 10 8 11 7 9 15 19 23 23 20 21 22 21 18 17 19 21 21 22 26 28 29 28 29 27 27 25 24 24 25 25 25 25 25 25 26 27 31 31
12 11 10 10 12 15 10 10 8 10 14 8 8 8 13 18 21 21 21 23 24 22 18 17 15 16 16 17 15 16 17 20 22 26 28 24 22 21 19 21 21 21 22 22 23 25 25 26 25
11 14 15 14 13 12 13 9 6 5 6 5 8 12 21 22 21 18 19 19 18 18 16 15 15 15 12 9 10 9 9 12 15 17 18 17 18 19 18 17 17 17 18 20 21 22 24 24 25
12 17 17 11 9 11 10 15 16 10 11 4 15 20 21 19 17 17 17 16 15 15 15 16 15 13 13 12 9 10 10 11 14 15 13 14 14 10 11 14 15 15 17 16 17 19 19 20 21
Wind_Direction
328 331 330 271 242 238 235 143 338 82 160 12 343 348 18 354 354 10 131 152 161 163 176 177 178 179 181 183 186 188 188 183 176 169 164 164 160 155 154 155 157 154 152 155 153 146 142 137 134
320 331 292 270 252 219 206 120 135 47 19 358 74 254 287 73 36 85 128 160 161 168 179 181 182 183 182 182 186 190 191 186 181 176 173 172 167 164 162 160 159 155 157 155 153 149 145 141 140
314 321 281 274 248 242 224 168 102 63 65 43 247 5 19 50 46 91 164 159 161 168 178 186 184 185 185 185 186 190 192 189 186 184 182 179 172 171 169 166 163 162 158 158 158 156 153 149 149
288 254 231 246 234 242 294 153 61 47 122 47 42 63 118 50 49 66 155 157 167 171 175 188 188 188 188 189 189 191 195 192 191 192 192 188 179 177 174 173 174 170 166 165 162 161 163 160 161
241 241 248 239 242 219 230 236 275 297 353 29 1 50 37 61 65 115 148 165 171 174 177 189 190 192 193 192 196 197 199 199 198 198 201 195 188 184 182 182 180 178 177 174 171 169 169 170 173
225 248 234 230 220 217 243 246 265 263 267 314 330 320 110 87 62 124 157 170 177 178 179 195 195 195 198 199 201 203 203 207 207 205 205 202 196 193 191 191 188 186 184 185 182 182 182 187 194
244 227 244 245 245 229 235 250 256 276 268 242 330 285 65 84 16 194 173 181 180 182 182 197 199 197 202 205 207 208 208 210 214 213 212 205 202 201 200 198 197 195 192 194 191 194 200 214 230
237 252 247 238 238 242 229 240 254 254 283 301 277 251 237 331 311 257 210 189 184 187 188 192 200 203 205 207 210 212 212 214 214 217 217 211 206 204 206 206 207 203 200 202 203 204 211 228 247
203 236 240 228 235 229 234 229 191 275 268 270 269 277 287 315 322 238 215 204 193 197 196 194 196 198 201 206 211 210 214 215 216 213 212 215 214 213 211 211 211 212 209 209 214 216 224 236 254
211 227 243 207 257 259 264 260 267 276 270 254 259 258 274 298 305 246 228 218 207 204 201 201 199 202 199 204 209 209 211 213 214 212 211 210 216 214 212 220 216 215 216 216 219 225 234 247 256
208 240 243 233 246 261 261 263 264 259 260 259 259 259 263 272 271 258 235 229 222 214 208 206 207 205 204 205 206 207 206 209 214 214 214 212 213 219 221 220 219 220 222 226 231 234 241 249 249
230 236 252 257 261 253 256 267 266 252 261 269 263 265 266 262 259 254 242 227 222 221 219 215 214 221 215 208 213 209 208 209 210 215 218 217 216 216 213 218 217 224 223 226 228 234 238 257 266
232 234 241 249 255 262 272 262 262 264 264 258 255 264 270 268 262 256 252 232 228 230 227 226 221 229 230 218 217 214 214 214 214 217 220 218 221 224 226 223 219 222 223 233 235 243 251 260 265
177 246 248 249 256 255 257 265 254 250 224 254 260 263 260 257 264 260 259 247 238 236 239 230 236 240 237 231 221 224 224 219 216 219 224 224 227 228 228 229 232 230 231 236 239 248 259 262 252
233 260 243 244 247 238 256 261 248 253 256 258 264 264 258 260 267 269 265 260 246 253 252 244 235 243 249 246 233 227 222 220 223 225 226 232 230 232 232 235 235 235 237 244 254 261 262 260 261
243 249 255 177 256 214 214 260 170 271 215 233 242 258 252 255 263 270 275 268 262 261 257 260 245 247 259 254 241 231 224 226 223 226 232 236 237 233 239 241 247 250 251 252 251 251 250 249 255
210 254 209 237 228 252 226 260 174 227 246 260 253 255 259 257 253 264 268 270 251 246 244 246 248 250 250 254 241 232 229 227 225 224 226 237 237 236 238 246 250 248 249 256 253 248 247 245 255
242 220 217 244 167 228 257 254 258 258 262 255 253 256 264 266 263 261 268 277 268 259 251 242 242 245 246 242 241 228 228 229 227 228 228 241 243 227 227 230 232 235 242 245 242 242 245 248 247
266 259 257 257 260 258 261 265 266 261 260 257 254 257 263 266 268 261 269 288 292 281 279 265 252 251 244 233 228 228 228 227 229 227 231 233 239 228 229 232 233 243 244 234 242 249 251 253 251
238 249 253 266 263 253 273 274 269 262 260 256 260 261 263 268 264 265 273 288 297 294 283 276 281 268 246 237 237 232 233 235 235 233 231 233 236 233 232 234 232 242 238 238 237 239 235 233 235
235 250 263 272 292 273 264 266 256 246 241 260 253 257 265 266 269 281 287 300 307 306 303 291 278 269 264 244 243 238 235 237 236 235 235 238 238 236 236 237 231 238 241 233 233 229 245 227 224
250 239 257 272 274 276 318 287 289 270 256 250 254 260 261 287 287 293 306 312 316 313 305 296 291 278 264 257 240 238 236 236 238 238 239 238 242 236 234 230 230 230 221 221 235 248 242 225 236
260 275 261 275 276 283 271 265 263 247 244 246 254 283 8 275 290 322 328 327 321 317 315 307 289 287 276 261 252 238 243 241 245 242 238 242 236 234 227 227 225 226 237 237 237 244 242 235 236
259 267 259 260 265 262 267 258 271 261 268 240 261 209 244 307 312 316 318 318 317 317 313 314 306 287 278 272 264 257 241 244 240 239 236 234 230 228 219 215 217 225 235 227 229 238 234 239 242
235 260 268 262 246 256 253 258 274 294 260 284 310 292 269 297 319 323 323 324 320 316 314 311 308 306 297 281 269 261 256 252 242 236 234 230 229 226 223 214 222 223 227 220 227 228 234 247 246
270 259 254 272 275 282 228 244 242 61 285 304 255 242 276 316 320 321 324 322 318 313 308 307 306 307 302 288 273 264 255 248 246 240 232 233 227 223 218 214 219 226 220 229 228 230 244 240 242
278 243 273 281 275 272 267 261 255 242 251 216 232 256 303 323 322 324 322 322 323 318 308 303 304 306 309 298 278 264 256 248 235 229 230 221 214 213 210 213 212 216 222 227 230 232 235 240 243
256 277 261 228 271 270 255 257 265 202 244 191 238 274 310 317 318 319 322 324 325 322 312 302 308 308 311 313 295 273 255 243 235 229 225 201 197 193 204 208 209 215 218 220 226 232 238 236 237
234 243 240 270 269 272 279 268 74 282 260 226 271 307 319 317 315 311 312 315 319 324 329 317 306 318 318 322 309 280 250 230 215 209 198 193 197 203 206 213 215 221 227 230 232 234 235 236 236
239 266 272 256 258 261 280 264 277 251 253 247 283 314 307 303 300 302 305 305 310 320 329 330 331 330 318 321 324 305 270 236 213 195 188 181 177 184 196 204 207 211 217 218 224 231 235 236 236
Height
1514 1514 1513 1511 1506 1493 1485 1490 1490 1488 1488 1493 1494 1489 1488 1489 1485 1489 1496 1497 1499 1501 1501 1506 1509 1513 1516 1520 1522 1524 1526 1529 1531 1533 1535 1536 1537 1538 1538 1539 1540 1541 1542 1543 1544 1544 1545 1546 1546
1513 1514 1512 1507 1501 1496 1485 1487 1491 1492 1494 1494 1494 1492 1490 1491 1495 1496 1498 1498 1499 1501 1502 1505 1509 1513 1516 1519 1522 1524 1527 1529 1532 1534 1535 1537 1539 1540 1540 1541 1541 1542 1543 1544 1545 1545 1546 1547 1548
1513 1513 1511 1501 1493 1491 1489 1489 1491 1493 1495 1493 1492 1494 1494 1494 1498 1498 1498 1498 1501 1502 1504 1506 1509 1513 1517 1520 1523 1525 1527 1530 1532 1534 1536 1537 1539 1541 1542 1542 1543 1544 1545 1546 1546 1547 1547 1548 1548
1514 1513 1512 1504 1495 1488 1488 1492 1495 1492 1494 1495 1495 1493 1496 1498 1499 1499 1498 1499 1500 1503 1504 1505 1509 1512 1516 1520 1523 1526 1529 1531 1532 1535 1537 1539 1540 1540 1541 1543 1545 1546 1546 1546 1547 1548 1548 1549 1548
1513 1510 1502 1501 1495 1499 1496 1497 1497 1495 1496 1495 1496 1497 1496 1499 1498 1499 1499 1500 1502 1504 1506 1505 1508 1511 1515 1518 1522 1526 1529 1531 1533 1535 1538 1539 1541 1541 1542 1544 1545 1545 1547 1548 1548 1548 1548 1549 1549
1508 1506 1503 1498 1497 1501 1499 1498 1498 1496 1497 1497 1497 1497 1497 1500 1501 1502 1501 1502 1504 1504 1505 1506 1509 1511 1514 1518 1521 1525 1528 1532 1533 1534 1537 1539 1541 1542 1543 1545 1545 1546 1547 1548 1549 1549 1549 1549 1549
1505 1498 1496 1490 1488 1494 1496 1500 1498 1496 1497 1496 1501 1498 1498 1500 1502 1502 1502 1502 1504 1504 1505 1505 1508 1511 1514 1518 1521 1523 1526 1529 1533 1535 1536 1538 1540 1542 1543 1544 1545 1547 1547 1548 1548 1549 1550 1550 1549
1504 1500 1493 1494 1496 1497 1492 1499 1499 1501 1499 1502 1500 1494 1495 1500 1501 1502 1502 1502 1503 1504 1506 1505 1507 1510 1512 1515 1519 1522 1525 1528 1530 1534 1536 1537 1539 1540 1542 1544 1545 1546 1547 1547 1548 1548 1549 1549 1549
1505 1500 1494 1493 1493 1490 1499 1496 1498 1503 1502 1500 1500 1499 1500 1501 1499 1501 1502 1502 1503 1505 1506 1507 1508 1509 1512 1515 1515 1519 1523 1525 1528 1531 1533 1537 1538 1539 1540 1542 1543 1546 1546 1546 1547 1548 1548 1548 1548
1499 1495 1488 1490 1492 1491 1494 1497 1498 1501 1499 1497 1497 1498 1498 1499 1499 1498 1500 1501 1502 1504 1505 1506 1508 1509 1511 1515 1515 1516 1520 1523 1526 1528 1530 1533 1537 1539 1541 1541 1542 1543 1546 1546 1546 1547 1547 1548 1548
1495 1491 1486 1493 1497 1494 1497 1497 1497 1498 1495 1495 1493 1496 1496 1496 1498 1497 1496 1498 1500 1502 1503 1504 1504 1505 1509 1512 1514 1515 1517 1519 1522 1525 1528 1530 1533 1536 1538 1540 1540 1542 1543 1546 1546 1546 1546 1547 1548
1495 1492 1491 1493 1493 1494 1493 1495 1492 1495 1494 1493 1493 1495 1494 1492 1493 1494 1493 1494 1496 1499 1500 1501 1501 1499 1502 1508 1512 1512 1515 1516 1518 1520 1524 1528 1529 1530 1534 1538 1540 1540 1543 1544 1545 1546 1545 1545 1545
1493 1488 1491 1492 1492 1491 1491 1490 1491 1491 1491 1491 1490 1491 1489 1487 1489 1489 1490 1491 1493 1495 1496 1497 1498 1497 1497 1502 1507 1509 1510 1513 1516 1516 1517 1522 1525 1527 1530 1533 1537 1537 1540 1542 1544 1544 1544 1543 1543
1487 1488 1488 1488 1487 1488 1489 1486 1487 1487 1487 1487 1487 1487 1486 1487 1486 1486 1487 1487 1489 1491 1492 1494 1494 1494 1494 1497 1501 1501 1505 1510 1511 1514 1515 1517 1521 1523 1526 1528 1531 1534 1536 1539 1540 1542 1542 1542 1542
1488 1487 1483 1482 1482 1483 1486 1484 1480 1483 1484 1484 1483 1484 1485 1484 1484 1483 1484 1484 1486 1487 1487 1489 1490 1490 1491 1492 1495 1497 1500 1503 1506 1508 1510 1512 1516 1519 1522 1524 1526 1528 1531 1533 1536 1537 1538 1538 1539
1487 1485 1481 1470 1479 1480 1486 1477 1471 1481 1482 1481 1480 1481 1482 1481 1480 1480 1479 1479 1480 1482 1483 1484 1486 1486 1486 1488 1490 1491 1494 1497 1500 1504 1504 1506 1508 1513 1518 1522 1524 1525 1526 1529 1532 1532 1535 1535 1537
1483 1479 1476 1473 1478 1478 1481 1471 1474 1478 1477 1477 1477 1477 1477 1477 1478 1478 1477 1476 1477 1478 1478 1479 1480 1480 1482 1484 1484 1485 1488 1491 1493 1496 1497 1496 1501 1507 1512 1514 1518 1520 1522 1523 1527 1531 1529 1532 1532
1469 1478 1476 1477 1474 1477 1475 1472 1470 1472 1472 1472 1472 1472 1473 1473 1474 1475 1474 1473 1472 1471 1472 1473 1473 1475 1476 1477 1478 1481 1482 1483 1485 1487 1489 1489 1492 1500 1503 1504 1507 1510 1513 1519 1520 1524 1525 1526 1530
1477 1479 1478 1473 1473 1477 1471 1468 1468 1468 1467 1467 1466 1466 1468 1469 1469 1470 1471 1470 1469 1469 1468 1467 1467 1469 1470 1471 1472 1474 1474 1477 1479 1481 1482 1483 1485 1490 1494 1497 1499 1503 1507 1510 1511 1514 1518 1523 1527
1479 1478 1473 1468 1469 1473 1468 1464 1461 1461 1461 1461 1461 1461 1461 1462 1462 1465 1466 1468 1467 1466 1464 1464 1464 1464 1464 1466 1467 1470 1473 1473 1474 1475 1476 1476 1479 1483 1487 1489 1493 1495 1500 1503 1502 1507 1510 1516 1525
1474 1473 1468 1470 1464 1465 1464 1460 1453 1450 1455 1457 1456 1456 1456 1457 1459 1462 1463 1463 1463 1463 1462 1460 1459 1459 1458 1460 1463 1464 1465 1467 1469 1470 1470 1469 1472 1475 1477 1480 1485 1489 1495 1497 1499 1500 1502 1510 1518
1470 1462 1465 1468 1469 1467 1454 1466 1450 1445 1447 1450 1450 1451 1451 1453 1459 1460 1459 1458 1458 1457 1456 1455 1454 1453 1453 1453 1454 1457 1458 1459 1461 1464 1465 1466 1466 1468 1470 1472 1477 1481 1486 1489 1497 1496 1496 1502 1506
1465 1460 1465 1464 1465 1462 1456 1457 1441 1438 1446 1444 1444 1446 1451 1456 1458 1457 1456 1455 1454 1453 1451 1449 1447 1447 1447 1447 1447 1450 1450 1452 1454 1457 1459 1459 1462 1461 1464 1466 1470 1474 1479 1482 1484 1490 1490 1494 1498
1461 1463 1460 1458 1458 1462 1448 1449 1440 1433 1432 1436 1442 1445 1454 1455 1454 1454 1453 1452 1451 1449 1448 1445 1442 1440 1440 1439 1439 1439 1440 1441 1445 1448 1450 1454 1455 1456 1455 1459 1463 1467 1471 1476 1479 1481 1486 1490 1490
1458 1464 1464 1459 1450 1444 1428 1442 1436 1430 1435 1438 1439 1443 1450 1452 1450 1451 1451 1449 1447 1445 1442 1440 1438 1434 1432 1431 1430 1430 1430 1432 1434 1437 1441 1445 1447 1448 1452 1452 1455 1460 1464 1470 1471 1475 1479 1480 1480
1446 1449 1456 1458 1445 1434 1424 1440 1432 1434 1436 1440 1444 1447 1447 1448 1448 1448 1447 1445 1443 1441 1439 1435 1432 1428 1425 1423 1422 1422 1421 1424 1427 1430 1432 1436 1438 1440 1444 1444 1448 1452 1457 1461 1464 1467 1469 1472 1473
1449 1455 1445 1449 1440 1442 1433 1425 1421 1424 1432 1437 1441 1444 1445 1446 1445 1442 1441 1440 1439 1437 1434 1431 1427 1423 1420 1417 1414 1412 1412 1413 1417 1420 1423 1428 1430 1433 1435 1437 1441 1446 1450 1454 1456 1459 1461 1464 1466
1452 1448 1456 1448 1459 1453 1426 1424 1426 1429 1427 1432 1438 1440 1443 1443 1441 1440 1437 1435 1433 1432 1430 1428 1425 1421 1417 1414 1410 1408 1407 1407 1409 1413 1414 1418 1421 1425 1429 1432 1435 1440 1443 1447 1450 1453 1455 1457 1458
1451 1449 1446 1446 1442 1449 1451 1434 1422 1428 1426 1432 1438 1439 1438 1438 1437 1437 1436 1435 1433 1430 1427 1425 1422 1419 1414 1411 1410 1408 1407 1407 1409 1411 1412 1413 1415 1419 1423 1428 1430 1435 1439 1441 1443 1446 1449 1451 1452
1447 1448 1444 1448 1451 1442 1448 1438 1422 1425 1428 1432 1436 1433 1436 1436 1436 1434 1433 1432 1430 1429 1426 1423 1420 1416 1412 1409 1407 1407 1407 1408 1407 1407 1409 1410 1412 1416 1420 1425 1428 1431 1435 1437 1439 1442 1444 1446 1447